Hourly Weather Megri

Today, 24 September, Thursday

Time Temperature Precipitation Wind Pressure Humidity
00:00 +14°C° 0 mm 2 mps 623 mmHg 80%
01:00 +14°C° 0 mm 2 mps 623 mmHg 81%
02:00 +14°C° 0 mm 2 mps 623 mmHg 83%
03:00 +14°C° 0 mm 2 mps 623 mmHg 85%
04:00 +13°C° 0 mm 2 mps 623 mmHg 85%
05:00 +13°C° 0 mm 2 mps 623 mmHg 85%
06:00 +13°C° 0 mm 2 mps 623 mmHg 86%
07:00 +15°C° 0 mm 2 mps 624 mmHg 78%
08:00 +16°C° 0 mm 1 mps 624 mmHg 70%
09:00 +19°C° 0 mm 1 mps 625 mmHg 62%
10:00 +21°C° 0 mm 1 mps 625 mmHg 55%
11:00 +22°C° 0 mm 1 mps 626 mmHg 48%
12:00 +24°C° 0 mm 1 mps 626 mmHg 42%
13:00 +24°C° 0 mm 1 mps 626 mmHg 39%
14:00 +25°C° 0 mm 2 mps 625 mmHg 37%
15:00 +25°C° 0 mm 2 mps 625 mmHg 35%
16:00 +24°C° 0 mm 2 mps 625 mmHg 42%
17:00 +21°C° 0 mm 2 mps 624 mmHg 49%
18:00 +19°C° 0 mm 2 mps 624 mmHg 57%
19:00 +18°C° 0 mm 2 mps 624 mmHg 61%
20:00 +17°C° 0 mm 2 mps 624 mmHg 65%
21:00 +17°C° 0 mm 3 mps 623 mmHg 69%
22:00 +16°C° 0 mm 2 mps 623 mmHg 69%
23:00 +16°C° 0 mm 2 mps 623 mmHg 70%

Tomorrow, 25 September, Friday

Time Temperature Precipitation Wind Pressure Humidity
00:00 +16°C° 0 mm 2 mps 623 mmHg 70%
01:00 +15°C° 0 mm 2 mps 623 mmHg 71%
02:00 +15°C° 0 mm 2 mps 623 mmHg 72%
03:00 +15°C° 0 mm 2 mps 623 mmHg 74%
04:00 +14°C° 0 mm 2 mps 623 mmHg 74%
05:00 +14°C° 0 mm 2 mps 623 mmHg 75%
06:00 +14°C° 0 mm 1 mps 622 mmHg 75%
07:00 +16°C° 0 mm 1 mps 623 mmHg 66%
08:00 +19°C° 0 mm 1 mps 624 mmHg 57%
09:00 +21°C° 0 mm 1 mps 625 mmHg 48%
10:00 +22°C° 0 mm 1 mps 625 mmHg 43%
11:00 +23°C° 0 mm 2 mps 625 mmHg 38%
12:00 +25°C° 0 mm 2 mps 625 mmHg 33%
13:00 +25°C° 0 mm 2 mps 625 mmHg 32%
14:00 +25°C° 0 mm 2 mps 624 mmHg 31%
15:00 +25°C° 0 mm 2 mps 624 mmHg 29%
16:00 +24°C° 0 mm 2 mps 623 mmHg 37%
17:00 +21°C° 0 mm 2 mps 623 mmHg 44%
18:00 +19°C° 0 mm 3 mps 622 mmHg 52%
19:00 +18°C° 0 mm 3 mps 622 mmHg 56%
20:00 +17°C° 0 mm 3 mps 622 mmHg 61%
21:00 +16°C° 0 mm 3 mps 622 mmHg 66%
22:00 +16°C° 0 mm 3 mps 622 mmHg 67%
23:00 +16°C° 0 mm 3 mps 621 mmHg 68%

Day after tomorrow, 26 September, Saturday

Time Temperature Precipitation Wind Pressure Humidity
00:00 +15°C° 0 mm 2 mps 621 mmHg 69%
01:00 +15°C° 0 mm 2 mps 621 mmHg 70%
02:00 +15°C° 0 mm 2 mps 621 mmHg 70%
03:00 +14°C° 0 mm 2 mps 621 mmHg 71%
04:00 +14°C° 0 mm 2 mps 621 mmHg 72%
05:00 +14°C° 0 mm 2 mps 620 mmHg 74%
06:00 +13°C° 0 mm 1 mps 620 mmHg 75%
07:00 +15°C° 0 mm 1 mps 621 mmHg 66%
08:00 +18°C° 0 mm 1 mps 622 mmHg 56%
09:00 +20°C° 0 mm 1 mps 623 mmHg 47%
10:00 +22°C° 0 mm 1 mps 623 mmHg 41%
11:00 +23°C° 0 mm 1 mps 623 mmHg 36%
12:00 +24°C° 0 mm 2 mps 623 mmHg 31%
13:00 +25°C° 0 mm 2 mps 623 mmHg 29%
14:00 +25°C° 0 mm 2 mps 623 mmHg 28%
15:00 +25°C° 0 mm 2 mps 623 mmHg 27%
16:00 +23°C° 0 mm 2 mps 622 mmHg 33%
17:00 +21°C° 0 mm 2 mps 622 mmHg 39%
18:00 +19°C° 0 mm 2 mps 621 mmHg 45%
19:00 +18°C° 0 mm 3 mps 621 mmHg 50%
20:00 +17°C° 0 mm 3 mps 622 mmHg 55%
21:00 +16°C° 0 mm 3 mps 622 mmHg 61%
22:00 +14°C° 0 mm 3 mps 622 mmHg 60%
23:00 +15°C° 0 mm 2 mps 622 mmHg 60%

27 September, Sunday

Time Temperature Precipitation Wind Pressure Humidity
00:00 +15°C° 0 mm 2 mps 622 mmHg 60%
01:00 +14°C° 0 mm 2 mps 622 mmHg 60%
02:00 +14°C° 0 mm 2 mps 622 mmHg 59%
03:00 +14°C° 0 mm 1 mps 622 mmHg 59%
04:00 +14°C° 0 mm 1 mps 622 mmHg 60%
05:00 +13°C° 0 mm 1 mps 622 mmHg 61%
06:00 +13°C° 0 mm 1 mps 622 mmHg 61%
07:00 +15°C° 0 mm 1 mps 623 mmHg 54%
08:00 +18°C° 0 mm 1 mps 624 mmHg 47%
09:00 +20°C° 0 mm 1 mps 625 mmHg 40%
10:00 +21°C° 0 mm 1 mps 626 mmHg 37%
11:00 +23°C° 0 mm 2 mps 626 mmHg 33%
12:00 +24°C° 0 mm 2 mps 626 mmHg 30%
13:00 +24°C° 0 mm 2 mps 626 mmHg 30%
14:00 +24°C° 0 mm 3 mps 626 mmHg 29%
15:00 +25°C° 0 mm 3 mps 626 mmHg 29%
16:00 +22°C° 0 mm 3 mps 626 mmHg 33%
17:00 +20°C° 0 mm 3 mps 625 mmHg 38%
18:00 +19°C° 0 mm 3 mps 625 mmHg 42%
19:00 +18°C° 0 mm 2 mps 625 mmHg 44%
20:00 +17°C° 0 mm 2 mps 625 mmHg 47%
21:00 +16°C° 0 mm 2 mps 625 mmHg 50%
22:00 +15°C° 0 mm 2 mps 625 mmHg 51%
23:00 +15°C° 0 mm 2 mps 625 mmHg 52%

28 September, Monday

Time Temperature Precipitation Wind Pressure Humidity
00:00 +15°C° 0 mm 2 mps 625 mmHg 54%
01:00 +14°C° 0 mm 2 mps 625 mmHg 55%
02:00 +14°C° 0 mm 2 mps 625 mmHg 57%
03:00 +13°C° 0 mm 2 mps 625 mmHg 59%
04:00 +13°C° 0 mm 2 mps 626 mmHg 61%
05:00 +13°C° 0 mm 2 mps 626 mmHg 64%
06:00 +12°C° 0 mm 2 mps 626 mmHg 66%
07:00 +14°C° 0 mm 2 mps 627 mmHg 60%
08:00 +16°C° 0 mm 2 mps 628 mmHg 54%
09:00 +18°C° 0 mm 2 mps 629 mmHg 48%
10:00 +19°C° 0 mm 2 mps 629 mmHg 45%
11:00 +20°C° 0 mm 3 mps 629 mmHg 42%
12:00 +21°C° 0 mm 3 mps 629 mmHg 39%
13:00 +21°C° 0 mm 3 mps 629 mmHg 39%
14:00 +21°C° 0 mm 3 mps 628 mmHg 39%
15:00 +21°C° 0 mm 4 mps 628 mmHg 39%
16:00 +20°C° 0 mm 4 mps 628 mmHg 44%
17:00 +18°C° 0 mm 4 mps 627 mmHg 49%
18:00 +15°C° 0 mm 4 mps 627 mmHg 55%
19:00 +16°C° 0 mm 3 mps 627 mmHg 56%
20:00 +14°C° 0 mm 3 mps 627 mmHg 58%
21:00 +13°C° 0 mm 3 mps 627 mmHg 60%
22:00 +12°C° 0 mm 3 mps 626 mmHg 59%
23:00 +12°C° 0 mm 3 mps 626 mmHg 58%

29 September, Tuesday

Time Temperature Precipitation Wind Pressure Humidity
00:00 +13°C° 0 mm 2 mps 626 mmHg 57%
01:00 +12°C° 0 mm 2 mps 626 mmHg 58%
02:00 +12°C° 0 mm 2 mps 626 mmHg 59%
03:00 +12°C° 0 mm 2 mps 625 mmHg 60%
04:00 +10°C° 0 mm 2 mps 625 mmHg 61%
05:00 +10°C° 0 mm 2 mps 625 mmHg 62%
06:00 +10°C° 0 mm 2 mps 625 mmHg 63%
07:00 +13°C° 0 mm 2 mps 626 mmHg 57%
08:00 +14°C° 0 mm 2 mps 627 mmHg 51%
09:00 +16°C° 0 mm 2 mps 627 mmHg 44%
10:00 +18°C° 0 mm 2 mps 627 mmHg 41%
11:00 +19°C° 0 mm 2 mps 627 mmHg 37%
12:00 +20°C° 0 mm 2 mps 627 mmHg 34%
13:00 +20°C° 0 mm 2 mps 627 mmHg 33%
14:00 +21°C° 0 mm 2 mps 626 mmHg 33%
15:00 +21°C° 0 mm 3 mps 626 mmHg 32%
16:00 +20°C° 0 mm 3 mps 625 mmHg 37%
17:00 +18°C° 0 mm 3 mps 625 mmHg 42%
18:00 +16°C° 0 mm 3 mps 624 mmHg 46%
19:00 +16°C° 0 mm 2 mps 624 mmHg 50%
20:00 +15°C° 0 mm 2 mps 624 mmHg 53%
21:00 +14°C° 0 mm 2 mps 623 mmHg 56%
22:00 +14°C° 0 mm 2 mps 623 mmHg 57%
23:00 +13°C° 0 mm 2 mps 623 mmHg 58%
Show more